Regional Weather Roundup
Issued by NWS

Home | Current Version | Previous Version | Text Only | Print | Product List | Glossary Off
Versions: 1 2 3 4 5 6 7 8 9 10 11 12 13 14 15 16 17 18 19 20 21 22 23 24 25 26 27 28 29 30 31 32 33 34 35 36 37 38 39 40 41 42 43 44 45 46 47 48 49 50

000
ASUS45 KSLC 200010
RWRUT

UTAH REGIONAL WEATHER ROUNDUP
NATIONAL WEATHER SERVICE SALT LAKE CITY UT
600 PM MDT TUE AUG 19 2014

UTZ001>011-023>025-200100-

NORTHERN UTAH

CITY           SKY/WX    TMP DP  RH WIND       PRES   REMARKS
HILL AFB       MOSUNNY   74  51  45 S12       29.89F
LOGAN          SUNNY     76  49  38 W6        29.86F
OGDEN          PTSUNNY   75  48  38 S9        29.87F
PROVO AIRPORT  MOSUNNY   73  55  53 SE7       29.92F
SALT LAKE CITY MOSUNNY   74  54  49 SE13      29.86F
VERNAL         LGT RAIN  60  58  92 N10       29.99F
WENDOVER       CLOUDY    79  46  31 CALM      29.86S
HEBER CITY     CLOUDY    68  54  60 CALM      29.97F
WEST JORDAN    CLOUDY    72  63  73 SE5       29.90F

$$

UTZ012>022-026-027-200100-

SOUTHERN UTAH

CITY           SKY/WX    TMP DP  RH WIND       PRES   REMARKS
BRYCE CANYON   CLOUDY    60  49  66 SW3       30.11S
CEDAR CITY     CLOUDY    69  56  62 SW13      29.97F
MILFORD        SUNNY     74  55  51 S13       29.91F
MOAB/CYNLANDS  HVY RAIN  65  61  87 SW20      29.96R FOG
PRICE          CLOUDY    63  57  81 E6        30.00F
ST GEORGE      CLOUDY    73  61  64 W3        29.88F

$$

REGIONAL REPORTS     COLORADO/ARIZONA

CITY           SKY/WX    TMP DP  RH WIND       PRES   REMARKS
CRAIG, CO      NOT AVBL
GRAND JUNCTION CLOUDY    73  51  46 NW14      29.90F
RIFLE          CLOUDY    79  49  34 NW9       29.91S
MONTROSE       CLOUDY    68  56  65 N3        29.99R
CORTEZ         LGT RAIN  62  60  93 W13       30.05F
PAGE, AZ       PTSUNNY   73  60  63 NE6       29.93F
GRAND CANYON   PTSUNNY   68  48  48 W8        30.07F
KINGMAN        PTSUNNY   75  55  49 SE22      29.93F
FLAGSTAFF      CLOUDY    60  55  83 SW13      30.13R

$$

REGIONAL REPORTS    NEVADA/IDAHO/WYOMING

CITY           SKY/WX    TMP DP  RH WIND       PRES   REMARKS
LAS VEGAS, NV  MOSUNNY   89  58  34 SE9G18    29.72F
ELY            TSTM      64  52  64 SE8G23    29.97R
ELKO           CLOUDY    77  42  28 W8        29.86R THUNDER
POCATELLO, ID  MOSUNNY   83  45  26 S21       29.82F
BURLEY         CLOUDY    80  50  34 S14       29.77F
EVANSTON, WY   PTSUNNY   60  50  69 SE12      30.04F
ROCK SPRINGS   LGT RAIN  60  53  77 SW7       30.02F

$$


USA.gov is the U.S. government's official web portal to all federal, state and local government web resources and services.